DW7067 Weather Reports


time (UTC)temp
F
wind
direction
speed
knots
gust
knots
rain 1hr
in
rain 24hr
in
rain mn
in
humidity
%
barometer
mb
20190625133021 69 256 0.9 5.2 0.00 0.82 0.33 85 1012.3
20190625131019 70 241 1.7 7.8 0.00 0.82 0.33 85 1012.2
20190625130019 70 224 1.7 6.1 0.00 0.82 0.33 88 1012.1
20190625125019 69 249 1.7 8.7 0.00 0.82 0.33 88 1012.1
20190625124019 69 234 1.7 4.3 0.00 0.82 0.33 90 1012.1
20190625123019 68 221 0.9 6.1 0.00 0.82 0.33 92 1012.1
20190625122019 68 268 0.9 4.3 0.00 0.82 0.33 95 1012.1
20190625121018 67 272 1.7 3.5 0.00 0.82 0.33 96 1011.8
20190625115019 67 220 0.0 8.7 0.00 0.82 0.33 100 1011.5
20190625111018 66 0 0.0 3.5 0.00 0.82 0.33 100 1011.3
20190625104018 65 0 0.0 0.9 0.00 0.82 0.33 100 1010.9
20190625103018 65 0 0.0 1.7 0.00 0.82 0.33 100 1010.9
20190625102018 65 0 0.0 0.0 0.00 0.82 0.33 100 1010.8
20190625094018 65 193 0.0 1.7 0.00 0.82 0.33 100 1010.1
20190625091018 66 248 0.9 4.3 0.01 0.82 0.33 100 1009.8
20190625082018 67 242 0.9 7.8 0.07 0.82 0.33 100 1009.0
20190625080019 67 186 0.9 4.3 0.13 0.81 0.32 100 1008.3
20190625073018 68 171 3.5 16.5 0.15 0.78 0.29 100 1007.7
20190625072018 69 201 1.7 12.2 0.14 0.75 0.26 99 1007.3
20190625071018 69 248 0.9 13.0 0.08 0.69 0.20 99 1007.1
20190625070018 69 253 0.9 3.5 0.09 0.68 0.19 99 1006.9
20190625065018 68 254 0.9 4.3 0.07 0.65 0.16 100 1006.9
20190625064018 68 217 0.0 5.2 0.08 0.65 0.16 100 1007.0
20190625062018 68 207 0.0 3.5 0.05 0.61 0.12 100 1007.1
20190625061019 67 0 0.0 0.9 0.05 0.61 0.12 100 1007.2
20190625060018 67 0 0.0 0.9 0.03 0.59 0.10 100 1007.2
20190625055018 67 0 0.0 0.9 0.03 0.58 0.09 100 1007.2
20190625054018 67 0 0.0 1.7 0.02 0.57 0.08 100 1007.4
20190625051018 67 0 0.0 0.0 0.07 0.56 0.07 97 1008.1
20190625045018 67 239 0.0 1.7 0.06 0.55 0.06 97 1008.2
20190625043018 67 0 0.0 0.0 0.04 0.53 0.04 96 1008.7
20190625041018 67 0 0.0 0.0 0.01 0.49 0.00 96 1009.0
20190625040019 68 0 0.0 0.0 0.03 0.49 0.00 96 1009.0
20190625035018 68 238 0.0 3.5 0.08 0.49 0.49 96 1008.9
20190625033018 68 238 0.9 2.6 0.46 0.49 0.49 95 1008.7
20190625032018 68 0 0.0 2.6 0.48 0.49 0.49 95 1008.7
20190625030018 69 213 1.7 6.1 0.45 0.45 0.45 95 1009.3
20190625025018 70 182 2.6 6.1 0.41 0.41 0.41 95 1009.7
20190625024018 70 245 1.7 14.8 0.26 0.26 0.26 95 1009.6
20190625021018 70 0 0.0 0.9 0.00 0.00 0.00 93 1008.9
20190625020018 70 0 0.0 1.7 0.00 0.00 0.00 92 1009.0
20190625013018 71 0 0.0 4.3 0.00 0.00 0.00 90 1008.9
20190625012018 72 0 0.0 0.9 0.00 0.00 0.00 88 1008.9
20190625010018 73 0 0.0 1.7 0.00 0.00 0.00 86 1008.5
20190625003018 76 0 0.0 0.0 0.00 0.00 0.00 82 1008.6
20190625002018 77 0 0.0 0.9 0.00 0.00 0.00 80 1008.6
20190625000018 79 82 1.7 2.6 0.00 0.00 0.00 75 1008.3
20190624235017 80 146 0.9 5.2 0.00 0.00 0.00 74 1008.4
20190624234018 81 219 0.9 4.3 0.00 0.00 0.00 72 1008.6
20190624233017 81 230 0.0 3.5 0.00 0.00 0.00 73 1008.9
20190624232017 81 231 0.9 3.5 0.00 0.00 0.00 69 1008.8
20190624231017 82 146 1.7 6.1 0.00 0.00 0.00 69 1008.6
20190624225017 82 258 0.9 3.5 0.00 0.00 0.00 66 1008.3
20190624223017 83 254 1.7 5.2 0.00 0.00 0.00 63 1008.6
20190624214017 84 253 2.6 7.8 0.00 0.00 0.00 59 1008.9
20190624213017 84 245 2.6 7.8 0.00 0.00 0.00 59 1009.0
20190624212017 84 243 2.6 8.7 0.00 0.00 0.00 57 1009.1
20190624211017 84 168 2.6 10.4 0.00 0.00 0.00 61 1009.2
20190624204017 83 257 2.6 9.6 0.00 0.00 0.00 62 1009.5
20190624203018 84 253 2.6 6.1 0.00 0.00 0.00 62 1009.6
20190624202017 84 189 1.7 7.8 0.00 0.00 0.00 62 1009.8
20190624201019 83 229 1.7 7.0 0.00 0.00 0.00 66 1010.0
20190624200017 81 262 0.9 6.1 0.00 0.00 0.00 68 1010.1
20190624195018 82 221 1.7 5.2 0.00 0.00 0.00 66 1010.3
20190624194018 82 189 1.7 6.1 0.00 0.00 0.00 68 1010.5
20190624193018 82 182 1.7 5.2 0.00 0.00 0.00 64 1010.5
20190624191017 81 196 2.6 10.4 0.00 0.00 0.00 67 1010.8
20190624185017 81 177 3.5 7.0 0.00 0.00 0.00 65 1010.7
20190624184017 81 159 3.5 9.6 0.00 0.00 0.00 66 1011.0
20190624183017 81 243 2.6 13.0 0.00 0.00 0.00 66 1011.1
20190624181017 80 288 1.7 5.2 0.00 0.00 0.00 68 1011.1
20190624174017 79 211 2.6 7.8 0.00 0.00 0.00 66 1011.1
20190624173017 80 262 1.7 7.0 0.00 0.00 0.00 67 1011.4
20190624170017 76 275 1.7 4.3 0.00 0.00 0.00 73 1011.9
20190624164039 75 250 1.7 5.2 0.00 0.00 0.00 74 1012.4
20190624163018 74 271 1.7 6.1 0.00 0.00 0.00 75 1012.5
20190624154017 70 258 0.0 2.6 0.00 0.00 0.00 85 1012.9
20190624152017 68 0 0.0 0.0 0.00 0.00 0.00 87 1013.0
20190624150017 67 0 0.0 0.0 0.00 0.00 0.00 87 1013.3
20190624144017 66 0 0.0 2.6 0.00 0.00 0.00 87 1013.0
20190624143017 66 0 0.0 1.7 0.00 0.00 0.00 86 1013.1
20190624142016 66 0 0.0 0.0 0.00 0.00 0.00 86 1013.2